Location: Alpha Ridge Park
(39.3209°N, 76.9128°W)
Time: 18:46:23
(UTC-05:00)

Hubble Space Telescope - Pass Details

Date: 30 November 2023
Orbit: 516 x 519 km, 28.5° (Epoch: 27 February)

Event Time Altitude Azimuth Distance (km) Brightness Sun altitude
Rises 18:15:31 0° 248° (WSW) 2,619 6.0 -17.1°
Reaches altitude 10° 18:18:28 10° 225° (SW) 1,734 4.2 -17.7°
Maximum altitude 18:20:51 15° 188° (S) 1,430 3.2 -18.1°
Drops below altitude 10° 18:23:15 10° 151° (SSE) 1,736 3.2 -18.6°
Enters shadow 18:23:25 - 149° (SSE) 1,776 3.2 -18.6°
